SCP
0 0 0 0 0 0 0 0 0 0 0 0 0 0 0 0 0 0 0 0 0 0 0 0 0 0 0 0 0 0 0 0 0 0 0 0 0 0 0 0 0 0 0
0 0 0 0 0 0 0 0 0 0 0 0 0 0 0 0 0 0 0 0 0 0 0 0 0 0 0 0 0 0 0 0 0 0 0 0 0 0 0 0 0 0 0
0 0 0 0 0 0 0 0 0 0 0 0 0 0 0 0 0 0 0 0 0 0 0 0 0 0 0 0 0 0 0 0 0 0 0 0 0 0 0 0 0 0 0
0 0 0 0 0 0 0 0 0 0 0 0 0 0 0 0 0 0 0 0 0 0 0 0 0 0 0 0 0 0 0 0 0 0 0 0 0 0 0 0 0 0 0
1 0 0 0 0 0 0 0 0 0 0 0 0 0 0 0 0 0 0 0 0 0 0 0 0 0 0 0 0 0 0 0 0 0 0 0 0 0 0 0 0 0 0
1 1 0 0 0 0 0 0 0 0 0 0 0 0 0 0 0 0 0 0 0 0 0 0 0 0 0 0 0 0 0 0 0 0 0 0 0 0 0 0 0 0 0
1 1 1 0 1 1 0 0 0 0 0 0 0 0 0 0 0 0 0 0 0 0 0 0 0 0 0 0 0 0 0 0 0 0 0 0 0 0 0 0 0 0 0
1 1 1 1 1 1 0 0 0 0 0 0 0 0 0 0 0 0 0 0 0 0 0 0 0 0 0 0 0 0 0 0 0 0 0 0 0 0 0 0 0 0 0
1 1 1 1 0 0 0 0 0 0 0 0 0 0 0 0 0 0 0 0 0 0 0 0 0 0 0 0 0 0 0 0 0 0 0 0 0 0 0 0 0 0 0
1 1 1 1 0 0 0 0 0 0 0 0 0 0 0 0 0 0 0 0 0 0 0 0 0 0 0 0 0 0 0 0 0 0 0 0 0 0 0 0 0 0 0
1 1 1 1 1 0 0 0 0 0 0 0 0 0 0 0 0 0 0 0 0 0 0 0 0 0 0 0 0 0 0 0 0 0 0 0 0 0 0 0 0 0 0
1 1 1 1 1 1 0 0 0 0 0 0 0 0 0 0 0 0 0 0 0 0 0 0 0 0 0 0 0 0 0 0 0 0 0 0 0 0 0 0 0 0 0
1 1 1 1 1 1 0 0 0 0 0 0 0 0 0 0 0 0 0 0 0 0 0 0 0 0 0 0 0 0 0 0 0 0 0 0 0 0 0 0 0 0 0
1 1 1 1 1 1 0 0 0 0 0 0 0 0 0 0 0 0 0 0 0 0 0 0 0 0 0 0 0 0 0 0 0 0 0 0 0 0 0 0 0 0 0
1 1 1 1 1 1 0 0 0 0 0 0 0 0 0 0 0 0 0 0 0 0 0 0 0 0 0 0 0 0 0 0 0 0 0 0 0 0 0 0 0 0 0
1 1 1 1 0 0 0 0 0 0 0 0 0 0 0 0 0 0 0 0 0 0 0 0 0 0 0 0 0 0 0 0 0 0 0 0 0 0 0 0 0 0 0
1 1 1 0 0 0 0 0 0 0 0 0 0 0 0 0 0 0 0 0 0 0 0 0 0 0 0 0 0 0 0 0 0 0 0 0 0 0 0 0 0 0 0
1 0 0 0 0 0 0 0 0 0 0 0 0 0 0 0 0 0 0 0 0 0 0 0 0 0 0 0 0 0 0 0 0 0 0 0 0 0 0 0 0 0 0
0 0 0 0 0 0 0 0 0 0 0 0 0 0 0 0 0 0 0 0 0 0 0 0 0 0 0 -0 -0 -0 -0 0 0 0 0 0 0 0 0 0 0 0 0
0 0 0 0 0 0 0 0 0 0 0 0 0 0 0 0 0 0 0 0 0 0 0 0 0 0 0 -0 -0 -0 -0 -0 -0 0 0 0 0 0 0 0 0 0 0
0 0 0 0 0 0 0 0 0 0 0 0 0 0 0 0 0 0 0 0 0 0 0 0 0 0 0 0 0 -0 -0 -0 -0 0 0 0 0 0 0 0 0 0 0
0 0 0 0 0 0 0 0 0 0 0 0 0 0 0 0 0 0 0 0 0 0 0 0 0 0 0 0 0 0 0 -0 -0 0 0 0 0 0 0 0 0 0 0
0 0 0 0 0 0 0 0 0 0 0 0 0 0 0 0 0 0 0 0 0 0 0 0 0 0 0 0 0 0 0 0 0 0 0 0 0 0 0 0 0 0 0
0 0 0 0 0 0 0 0 0 0 0 0 0 0 0 0 0 0 0 0 0 0 0 0 0 0 0 0 0 0 0 0 0 0 0 0 0 0 0 0 0 0 0
0 0 0 0 0 0 0 0 0 0 0 0 0 0 0 0 0 0 0 0 0 0 0 0 0 0 0 0 0 0 0 0 0 0 0 0 0 0 0 0 0 0 0
0 0 0 0 0 0 0 0 0 0 0 0 0 0 0 0 0 0 0 0 0 0 0 0 0 0 0 0 0 0 0 0 0 0 0 0 0 0 0 0 0 0 0
Wind_Speed
9 11 13 13 14 15 15 15 15 14 14 14 14 14 14 14 14 13 13 14 14 14 14 15 15 15 15 15 15 14 14 14 14 14 14 14 13 13 13 12 10 9 13
11 13 13 13 14 15 15 15 15 14 14 14 14 14 14 14 13 13 13 14 14 14 14 15 15 14 14 14 14 14 14 14 13 12 11 12 13 13 13 13 12 9 12
13 13 15 13 14 14 15 15 15 14 13 14 14 14 14 13 13 13 14 14 14 14 14 14 14 14 14 13 13 13 13 13 12 9 7 8 10 12 12 12 12 12 11
13 12 13 14 14 15 15 15 15 14 13 14 14 13 13 13 13 14 14 14 14 14 14 13 13 13 13 13 13 13 12 12 10 6 7 8 9 11 11 11 11 11 11
12 12 13 13 14 15 15 15 14 14 13 13 13 13 13 13 13 14 14 14 14 13 13 13 13 13 13 12 12 12 11 10 7 6 8 8 8 10 11 11 11 11 11
12 12 13 12 14 14 14 14 14 13 13 13 13 13 13 13 13 13 13 13 13 13 12 12 12 12 12 12 12 11 10 8 5 7 7 8 8 10 10 11 10 11 11
12 12 14 12 13 14 14 14 13 13 13 13 13 13 13 13 13 13 13 12 12 12 12 12 12 12 11 11 11 11 10 7 6 7 7 8 9 10 11 11 11 11 11
12 11 13 12 12 13 13 13 13 12 12 12 13 13 13 13 13 13 12 12 12 12 11 11 11 11 11 11 10 10 8 5 6 7 7 8 10 10 10 11 11 11 11
12 11 11 12 12 12 12 12 12 12 12 12 12 12 12 12 12 12 12 12 11 11 11 11 11 11 11 10 10 10 8 5 5 5 6 6 9 9 10 10 10 10 11
10 10 10 11 11 11 11 11 11 11 11 11 11 11 11 11 11 11 11 11 11 11 11 10 10 10 10 10 9 8 5 2 5 6 5 7 9 9 10 10 10 10 10
10 9 9 10 10 10 10 11 11 11 11 11 10 10 8 8 8 8 10 10 11 11 10 10 10 10 9 9 8 5 2 3 5 4 5 8 8 9 9 9 9 10 10
11 10 9 9 9 10 8 8 7 7 8 8 8 8 6 6 6 7 9 9 10 10 10 9 8 7 4 4 5 2 2 4 4 4 5 8 8 9 9 9 9 10 10
12 10 9 8 9 9 7 6 5 5 5 6 7 7 6 5 5 5 4 5 6 6 5 5 4 3 3 3 2 3 3 3 3 3 6 8 8 8 9 9 9 9 10
11 10 9 8 8 8 7 6 5 5 4 5 6 6 5 4 4 4 3 4 3 2 3 3 2 3 4 4 3 3 3 2 3 3 5 8 8 8 8 8 9 9 10
10 10 10 9 8 8 7 6 5 5 5 5 5 5 5 4 4 4 3 3 3 3 3 2 2 3 3 3 3 3 3 3 3 3 3 8 8 8 8 8 9 9 10
10 10 9 9 8 8 7 6 5 5 5 5 5 5 5 4 4 4 4 3 3 2 2 2 3 2 2 2 2 3 2 3 3 3 3 4 7 8 8 9 9 10 10
11 10 10 9 9 9 8 7 5 5 5 4 4 5 5 4 5 4 4 3 3 2 3 2 3 2 2 2 2 2 2 2 2 2 2 2 3 5 8 9 9 10 10
10 10 10 7 9 9 7 7 5 5 5 4 4 4 5 5 5 4 3 3 3 2 2 2 2 2 1 1 1 1 1 1 1 2 2 2 2 2 4 7 9 10 10
9 10 9 9 9 8 7 6 6 5 4 4 4 4 4 5 5 4 3 3 3 2 2 2 2 1 1 1 0 0 0 1 0 0 1 2 3 3 3 4 6 8 10
7 8 9 9 9 8 6 5 5 5 4 3 3 4 5 4 4 4 3 4 3 2 2 2 2 1 1 0 0 1 1 1 1 0 1 1 2 3 4 4 4 4 7
7 8 9 9 9 7 6 5 5 4 4 3 3 4 5 4 4 4 3 4 3 2 2 2 2 2 1 1 1 1 1 2 2 1 2 2 2 3 4 5 4 5 4
7 8 9 9 8 7 5 5 3 4 3 3 3 3 4 4 4 3 4 3 3 2 3 3 2 1 1 0 1 2 2 2 2 2 2 2 3 3 4 5 5 5 6
7 8 8 8 8 8 7 5 5 4 3 3 3 3 3 4 4 4 4 4 3 3 3 3 2 2 1 1 1 2 2 2 2 2 2 3 3 4 4 4 5 6 6
6 6 7 8 8 8 9 8 9 6 6 5 4 4 4 4 4 4 4 4 3 3 2 2 2 1 2 1 1 1 2 2 3 2 2 2 4 5 5 4 5 5 6
6 6 6 7 8 8 8 9 8 6 5 4 5 5 4 4 4 4 4 4 4 3 3 2 2 2 2 2 1 1 1 2 3 3 4 4 4 3 4 5 5 5 6
3 5 6 7 7 8 8 8 8 8 7 7 7 6 4 3 3 5 4 4 4 3 3 3 3 3 2 2 1 1 1 1 2 3 4 5 5 4 5 4 4 5 5
Wind_Direction
156 154 148 147 144 140 138 134 131 128 125 122 120 117 113 109 107 105 103 100 96 93 92 90 88 85 83 80 79 77 75 73 71 69 66 65 63 62 59 50 47 58 52
149 152 147 148 145 141 138 134 130 128 125 124 122 120 116 113 110 106 103 101 98 95 92 89 88 86 84 82 80 78 76 74 72 69 69 70 64 60 58 53 46 50 49
146 148 150 146 143 140 136 133 131 129 126 125 123 121 118 116 112 109 105 103 98 94 91 90 88 87 84 82 81 79 77 75 72 68 71 71 67 59 56 54 51 49 46
147 148 150 142 142 140 138 134 133 130 127 126 124 121 119 117 114 111 108 104 99 95 92 90 88 87 85 84 83 80 77 74 67 57 65 62 62 58 53 51 49 46 43
146 146 138 142 141 140 138 136 135 132 129 127 124 122 119 117 113 110 107 104 101 97 93 91 89 88 86 85 83 81 78 74 68 63 63 59 59 55 51 50 47 44 41
147 144 137 140 140 139 138 136 135 133 132 129 126 123 121 118 114 111 108 105 102 99 96 94 93 90 87 85 83 81 78 71 72 65 59 54 55 53 51 50 45 42 38
147 143 140 139 138 135 135 133 132 133 133 131 129 125 122 118 115 112 109 106 104 102 100 96 94 92 88 85 83 80 74 58 63 65 59 56 54 51 50 48 44 40 37
146 144 141 136 135 133 131 130 128 127 130 133 130 126 123 120 118 115 111 108 106 104 101 98 95 93 90 86 82 77 68 50 70 65 61 58 52 48 48 45 40 36 32
147 146 145 145 140 131 127 127 127 126 124 124 124 123 122 120 119 117 113 110 108 104 101 99 96 93 90 85 81 75 65 38 62 62 58 54 49 46 46 43 39 34 30
149 149 149 148 148 145 137 124 123 122 120 118 115 113 112 116 117 115 114 109 108 105 102 99 96 93 89 85 81 76 65 54 63 63 55 54 45 44 43 39 35 31 28
154 155 152 150 150 146 142 132 126 119 116 117 113 111 122 126 124 119 104 105 107 104 103 99 97 95 95 92 82 73 64 66 65 58 54 47 42 42 40 36 31 28 25
162 159 153 150 151 145 141 141 140 135 135 135 132 132 126 119 111 111 100 96 99 101 102 97 100 106 105 101 97 97 74 68 67 66 57 42 40 38 36 32 27 23 18
163 159 156 152 154 146 141 141 139 137 136 135 137 134 126 119 120 120 119 114 110 113 109 114 120 100 90 85 83 77 68 63 64 67 55 40 38 34 33 28 23 19 14
165 162 157 152 154 147 142 141 141 137 137 136 137 138 133 127 128 126 124 120 116 105 108 110 102 98 96 94 87 85 82 73 65 64 55 37 33 30 27 23 18 14 10
167 165 158 155 157 150 143 144 144 142 141 138 137 139 139 136 135 133 126 123 117 111 110 105 109 105 99 89 86 82 81 79 73 68 69 44 28 26 24 19 13 10 5
171 165 158 161 161 153 149 149 148 144 140 142 139 141 142 137 137 137 131 124 116 115 106 107 99 102 98 92 89 83 79 81 74 69 62 63 41 26 21 15 10 5 1
173 166 163 165 163 157 152 150 145 144 144 143 137 141 140 135 137 134 129 126 119 121 120 110 102 95 94 107 107 92 79 71 71 62 52 36 39 34 22 11 5 0 357
172 168 164 163 162 157 151 148 142 144 144 141 138 140 139 135 136 133 130 125 125 127 127 122 118 117 109 95 98 102 107 108 69 46 49 29 13 3 18 10 359 355 352
174 168 163 163 161 155 147 140 137 138 139 140 141 138 139 138 142 136 133 129 135 135 134 130 121 117 114 92 85 215 219 200 136 89 41 13 7 350 343 354 348 348 345
171 167 165 163 160 149 140 134 133 132 134 138 140 138 142 143 147 139 136 134 139 140 139 140 124 103 85 68 217 235 238 232 227 229 324 340 343 337 335 331 327 333 337
165 170 166 167 162 155 152 154 154 153 149 145 143 142 148 147 149 144 142 145 152 153 151 144 134 119 80 23 242 234 207 213 231 247 279 300 324 327 324 324 324 327 322
174 174 173 173 168 167 165 160 154 144 145 142 141 146 152 153 152 154 156 156 162 161 156 156 149 148 93 24 302 276 260 208 199 243 255 277 302 314 314 320 323 324 322
183 182 180 177 171 170 162 147 133 127 130 151 162 167 165 164 159 161 165 161 166 171 173 176 177 178 167 144 337 307 295 302 310 221 251 270 295 301 303 311 312 317 320
192 188 184 176 174 171 168 167 167 173 176 180 175 174 168 171 168 166 167 168 171 177 178 182 198 211 205 197 173 315 316 325 300 292 243 270 301 299 301 304 304 310 315
190 186 184 179 177 175 176 175 177 181 176 164 163 168 172 171 172 171 175 177 179 181 182 183 189 210 224 229 214 225 250 268 279 284 289 299 295 289 299 299 301 305 308
180 181 179 178 178 178 178 178 183 180 173 170 171 172 175 173 176 178 183 185 182 183 186 189 194 206 218 222 230 232 255 265 284 282 286 299 300 301 296 290 294 305 309